Regional Weather Roundup
Issued by NWS

Home | Current Version | Previous Version | Text Only | Print | Product List | Glossary Off
Versions: 1 2 3 4 5 6 7 8 9 10 11 12 13 14 15 16 17 18 19 20 21 22 23 24 25 26 27 28 29 30 31 32 33 34 35 36 37 38 39 40 41 42 43 44 45 46 47 48 49 50

000
ASUS43 KBIS 071610
RWRND

NORTH DAKOTA REGIONAL WEATHER ROUNDUP
NATIONAL WEATHER SERVICE BISMARCK ND
1100 AM CDT TUE JUL 07 2015

NOTE: "FAIR" INDICATES FEW OR NO CLOUDS BELOW 12,000 FEET WITH NO
SIGNIFICANT WEATHER AND/OR OBSTRUCTIONS TO VISIBILITY.


NDZ001>003-009>011-017-071700-
NORTHWEST NORTH DAKOTA

CITY           SKY/WX    TMP DP  RH WIND       PRES   REMARKS
WILLISTON      CLOUDY    68  54  60 S9        30.08F HAZE
MINOT          SUNNY     66  49  54 S10       30.11F
MINOT AFB      SUNNY     69  55  60 S13       30.10F
$$

NDZ018>021-031>035-040>046-071700-
SOUTHWEST NORTH DAKOTA

CITY           SKY/WX    TMP DP  RH WIND       PRES   REMARKS
BISMARCK       SUNNY     66  53  63 SE9       30.15F
DICKINSON      MOSUNNY   67  54  63 S12       30.10F
GARRISON         N/A     65  54  67 S9        30.12F
HETTINGER ARPT MOSUNNY   66  56  70 SE9       30.12F HAZE
$$

NDZ004>008-012>016-024-026-027-054-071700-
NORTHEAST NORTH DAKOTA

CITY           SKY/WX    TMP DP  RH WIND       PRES   REMARKS
GRAND FORKS    SUNNY     65  45  48 SW7       30.17F
GRND FRKS AFB  SUNNY     67  47  49 W3        30.17F
DEVILS LAKE    SUNNY     64  46  52 SW8       30.15F
$$

NDZ022-023-025-028>030-036>039-047>053-071700-
SOUTHEAST NORTH DAKOTA

CITY           SKY/WX    TMP DP  RH WIND       PRES   REMARKS
FARGO          SUNNY     65  45  48 S5        30.19F
JAMESTOWN      SUNNY     64  44  48 CALM      30.17F
$$



USA.gov is the U.S. government's official web portal to all federal, state and local government web resources and services.